Weather History for KDMO - November, 2013

Change the Weather History Date:

Monday, November 25, 2013

  Actual Average Record
Temperature  
Mean Temperature 33 °F 42 °F  
Max Temperature 37 °F 51 °F 69 °F (1988)
Min Temperature 29 °F 34 °F 8 °F (1950)
Degree Days  
Heating Degree Days 32 23  
Month to date heating degree days 500 432  
Since 1 July heating degree days 798 723  
Cooling Degree Days 0 0  
Month to date cooling degree days 0 0  
Year to date cooling degree days 1485 1487  
Moisture  
Dew Point 18 °F    
Average Humidity 57    
Maximum Humidity 72    
Minimum Humidity 41    
Precipitation  
Precipitation 0.00 in 0.10 in 0.76 in (1987)
Month to date precipitation 2.04 2.60  
Year to date precipitation 39.06 38.29  
Sea Level Pressure  
Sea Level Pressure 30.27 in    
Wind  
Wind Speed 8 mph (SSW)    
Max Wind Speed 14 mph    
Max Gust Speed 17 mph    
Visibility 10 miles    
Events      
T = Trace of Precipitation, MM = Missing Value Source: NWS Daily Summary

Daily Weather History Graph

Daily Weather History Graph

Search for Another Location

Airport or City:

Trip Planner

Search our weather history database for the weather conditions in past years. The results will help you decide how hot, cold, wet, or windy it might be!

Date:

Astronomy

Nov. 25, 2013 Rise Set
Actual Time 7:06 AM CST 4:53 PM CST
Civil Twilight 6:36 AM CST 5:22 PM CST
Nautical Twilight 6:04 AM CST 5:55 PM CST
Astronomical Twilight 5:32 AM CST 6:26 PM CST
Moon No Moon Rise 12:25 PM CST (11/25)
Length of Visible Light 10h 45m
Length of Day
9h 47m
Waning Gibbous, 51% of the Moon is Illuminated
Nov 25
Waning Gibbous
Nov 25
Last Quarter
Dec 2
New
Dec 9
First Quarter
Dec 17
Full

Hourly Weather History & Observations

Time (CST) Temp. Windchill Dew Point Humidity Pressure Visibility Wind Dir Wind Speed Gust Speed Precip Events Conditions
12:53 AM 30.9 °F 21.2 °F 10.9 °F 43% 30.38 in 10.0 mi South 12.7 mph - N/A   Overcast
1:53 AM 30.9 °F 21.7 °F 12.0 °F 46% 30.36 in 10.0 mi South 11.5 mph - N/A   Overcast
2:53 AM 30.9 °F 22.8 °F 12.0 °F 46% 30.34 in 10.0 mi South 9.2 mph - N/A   Overcast
3:53 AM 30.9 °F 22.2 °F 12.0 °F 46% 30.32 in 10.0 mi South 10.4 mph - N/A   Overcast
4:53 AM 32.0 °F 23.6 °F 12.0 °F 44% 30.32 in 10.0 mi South 10.4 mph - N/A   Overcast
5:53 AM 32.0 °F 24.8 °F 12.0 °F 44% 30.30 in 10.0 mi South 8.1 mph - N/A   Overcast
6:53 AM 32.0 °F 24.8 °F 12.9 °F 45% 30.30 in 10.0 mi South 8.1 mph - N/A   Overcast
7:53 AM 32.0 °F 23.6 °F 12.9 °F 45% 30.30 in 10.0 mi South 10.4 mph - N/A   Overcast
8:53 AM 33.1 °F 26.1 °F 12.9 °F 43% 30.30 in 10.0 mi SSW 8.1 mph - N/A   Overcast
9:53 AM 34.0 °F 26.0 °F 15.1 °F 46% 30.30 in 10.0 mi SSW 10.4 mph - N/A   Overcast
10:53 AM 35.1 °F 27.4 °F 16.0 °F 46% 30.28 in 10.0 mi SW 10.4 mph - N/A   Overcast
11:53 AM 36.0 °F 28.5 °F 17.1 °F 46% 30.27 in 10.0 mi SW 10.4 mph - N/A   Overcast
12:53 PM 36.0 °F 28.0 °F 18.0 °F 48% 30.25 in 10.0 mi SW 11.5 mph - N/A   Overcast
1:53 PM 36.0 °F 28.5 °F 18.0 °F 48% 30.23 in 10.0 mi SW 10.4 mph - N/A   Overcast
2:53 PM 36.0 °F 29.0 °F 19.9 °F 52% 30.21 in 10.0 mi SW 9.2 mph - N/A   Overcast
3:53 PM 36.0 °F 29.6 °F 23.0 °F 59% 30.22 in 10.0 mi WSW 8.1 mph - N/A   Overcast
4:53 PM 35.1 °F 28.6 °F 24.1 °F 64% 30.22 in 10.0 mi SW 8.1 mph - N/A   Overcast
5:53 PM 35.1 °F 30.1 °F 24.1 °F 64% 30.23 in 10.0 mi SSW 5.8 mph - N/A   Overcast
6:53 PM 34.0 °F 28.0 °F 24.1 °F 67% 30.24 in 10.0 mi SW 6.9 mph - N/A   Mostly Cloudy
7:53 PM 34.0 °F 31.0 °F 24.1 °F 67% 30.23 in 10.0 mi WSW 3.5 mph - N/A   Overcast
8:53 PM 33.1 °F 28.7 °F 24.1 °F 70% 30.21 in 10.0 mi West 4.6 mph - N/A   Scattered Clouds
9:53 PM 32.0 °F 27.5 °F 24.1 °F 73% 30.22 in 10.0 mi WSW 4.6 mph - N/A   Clear
10:53 PM 32.0 °F 26.4 °F 23.0 °F 69% 30.22 in 10.0 mi West 5.8 mph - N/A   Clear
11:53 PM 30.0 °F 25.2 °F 21.9 °F 72% 30.21 in 10.0 mi SW 4.6 mph - N/A   Clear